Regional Weather Roundup
Issued by NWS Midland/Odessa, TX

Skip options and go directly to product.
Home | Oldest Version | Previous Version | Current Version | All | Text Only | Save Text | Print | Product List | Glossary Off

Skip product version selection by date and time.   

148
ASUS44 KMAF 280110
RWRMAF
MIDLAND AREA WEATHER ROUNDUP
NATIONAL WEATHER SERVICE MIDLAND TX
800 PM CDT FRI MAR 27 2015

...IN SOUTHWEST TEXAS AND SOUTHEAST NEW MEXICO...

CITY           SKY/WX    TMP DP  RH WIND       PRES   REMARKS
ALPINE         CLEAR     68  24  19 SW9       30.24R
ANDREWS        FAIR      71  29  20 SW7       30.08S
ARTESIA        CLEAR     73  28  19 SE9       30.07R
BIG SPRING     CLEAR     74  31  20 S8        30.09S
CARLSBAD       CLEAR     74  33  22 SE7       30.05S
DRYDEN           N/A     74  36  25 SE12      30.09R
FORT STOCKTON  CLEAR     76  30  18 CALM      30.10R
GUAD PASS      CLEAR     67  18  15 SW23G31   30.19S
HOBBS          CLEAR     72  25  17 CALM      30.09S
MARFA          CLEAR     66  23  19 SW7       30.23R
MIDLAND AIRPK  CLEAR     72  32  23 S8        30.08F
MIDLAND INTL   CLEAR     73  32  22 S8        30.08S
ODESSA         CLEAR     72  29  20 S9        30.09S
PECOS          CLEAR     75  32  20 SW7       30.05S
PRESIDIO       FAIR      76  29  17 CALM      30.11S
SEMINOLE       CLEAR     72  28  19 W5        30.09R
SNYDER         CLEAR     73  32  22 NE6       30.08R
WINK           CLEAR     75  28  17 SW6       30.05S
$$
...OTHER STATIONS IN TEXAS...

CITY           SKY/WX    TMP DP  RH WIND       PRES   REMARKS
ABILENE        CLEAR     70  34  26 E5        30.09S
AMARILLO       CLEAR     65  30  27 SE9       30.09F
AUSTIN         CLEAR     65  42  43 E5        30.09R
BROWNSVILLE    CLEAR     65  52  62 E7        30.17R
CORPUS CHRISTI PTCLDY    69  57  65 SE10      30.14R
DALLAS FTW     MOCLDY    60  41  49 N10       30.12R
DEL RIO        CLEAR     76  35  22 SE7       30.08S
EL PASO        CLEAR     77  16  10 W6        30.11S
HOUSTON INT    PTCLDY    70  40  33 W5        30.08R
LUBBOCK        PTCLDY    68  32  26 SE15      30.08R
SAN ANGELO     CLEAR     72  34  24 S8        30.08S
SAN ANTONIO    CLEAR     74  33  22 SW12      30.11S
WACO           CLEAR     64  42  44 E7        30.10F
WICHITA FALLS  NOT AVBL
$$
...OTHER LOCATIONS IN NEW MEXICO...

CITY           SKY/WX    TMP DP  RH WIND       PRES   REMARKS
ALAMAGORDO     PTCLDY    73  25  16 CALM      30.12S
ALBUQUERQUE    PTCLDY    74  13   9 NW12      30.14R
CANNON AFB     CLEAR     68  31  24 SE3       30.09S
CLOVIS         CLEAR     66  28  24 SE9       30.09S
HOLLOMAN AFB   PTCLDY    75  17  11 S6        30.10S
ROSWELL        CLEAR     75  26  16 S10       30.05F
RUIDOSO        CLEAR     61  14  16 NW5       30.26S
SANTA FE       CLEAR     67  13  12 W13       30.15R
TRUTH OR CONSE CLEAR     74  18  12 S10       30.11S
TUCUMCARI      CLEAR     70  23  17 SE9       30.04F
$$

USA.gov is the U.S. government's official web portal to all federal, state and local government web resources and services.